Time,TemperatureF,DewpointF,PressureIn,WindDirection,WindDirectionDegrees,WindSpeedMPH,WindSpeedGustMPH,Humidity,HourlyPrecipIn,Conditions,Clouds,dailyrainin,SoftwareType,DateUTC
2013-01-31 00:03:00,16.1,13.2,29.96,NNW,330,0.0,0.0,88,0.00,,SKC,0.00,VWS V13.01,2013-01-31 06:03:00,
2013-01-31 00:08:00,15.9,13.0,29.96,NW,311,7.0,11.0,88,0.00,,SKC,0.00,VWS V13.01,2013-01-31 06:08:00,
2013-01-31 00:13:00,15.9,13.0,29.96,WNW,301,0.0,13.0,88,0.00,,SKC,0.00,VWS V13.01,2013-01-31 06:13:00,
2013-01-31 00:18:00,15.8,12.9,29.96,NNW,328,0.0,7.0,88,0.00,,SKC,0.00,VWS V13.01,2013-01-31 06:18:00,
2013-01-31 00:23:00,15.7,12.8,29.97,NNW,341,5.0,12.0,88,0.00,,SKC,0.00,VWS V13.01,2013-01-31 06:23:00,
2013-01-31 00:28:00,15.7,12.8,29.97,NW,307,1.0,9.0,88,0.00,,SKC,0.00,VWS V13.01,2013-01-31 06:28:00,
2013-01-31 00:33:00,15.6,12.4,29.97,NW,314,9.0,14.0,87,0.00,,SKC,0.00,VWS V13.01,2013-01-31 06:33:00,
2013-01-31 00:38:00,15.5,12.3,29.97,WNW,282,11.0,11.0,87,0.00,,SKC,0.00,VWS V13.01,2013-01-31 06:38:00,
2013-01-31 00:44:00,15.4,12.2,29.97,NW,306,0.0,0.0,87,0.00,,SKC,0.00,VWS V13.01,2013-01-31 06:44:00,
2013-01-31 00:49:00,15.4,12.2,29.97,NW,308,9.0,11.0,87,0.00,,SKC,0.00,VWS V13.01,2013-01-31 06:49:00,
2013-01-31 00:54:00,15.3,12.1,29.97,NW,315,0.0,11.0,87,0.00,,SKC,0.00,VWS V13.01,2013-01-31 06:54:00,
2013-01-31 00:59:00,15.2,12.0,29.97,NW,307,9.0,16.0,87,0.00,,SKC,0.00,VWS V13.01,2013-01-31 06:59:00,
2013-01-31 01:04:00,15.1,11.9,29.97,NW,326,5.0,11.0,87,0.00,,SKC,0.00,VWS V13.01,2013-01-31 07:04:00,
2013-01-31 01:09:00,14.9,11.7,29.97,North,353,7.0,11.0,87,0.00,,SKC,0.00,VWS V13.01,2013-01-31 07:09:00,
2013-01-31 01:14:00,14.7,11.5,29.97,NNW,332,0.0,9.0,87,0.00,,SKC,0.00,VWS V13.01,2013-01-31 07:14:00,
2013-01-31 01:19:00,14.6,11.4,29.97,NNW,330,0.0,1.0,87,0.00,,SKC,0.00,VWS V13.01,2013-01-31 07:19:00,
2013-01-31 01:24:00,14.6,11.4,29.97,NW,312,1.0,12.0,87,0.00,,SKC,0.00,VWS V13.01,2013-01-31 07:24:00,
2013-01-31 01:29:00,14.5,11.3,29.97,NW,307,0.0,10.0,87,0.00,,SKC,0.00,VWS V13.01,2013-01-31 07:29:00,
2013-01-31 01:34:00,14.4,11.2,29.97,WNW,300,0.0,1.0,87,0.00,,SKC,0.00,VWS V13.01,2013-01-31 07:34:00,
2013-01-31 01:39:00,14.3,11.1,29.98,NW,307,0.0,8.0,87,0.00,,SKC,0.00,VWS V13.01,2013-01-31 07:39:00,
2013-01-31 01:44:00,14.2,11.1,29.98,NNW,330,0.0,0.0,87,0.00,,SKC,0.00,VWS V13.01,2013-01-31 07:44:00,
2013-01-31 01:49:00,14.2,11.1,29.98,NW,305,0.0,6.0,87,0.00,,SKC,0.00,VWS V13.01,2013-01-31 07:49:00,
2013-01-31 01:54:00,14.1,10.9,29.98,WNW,287,5.0,15.0,87,0.00,,SKC,0.00,VWS V13.01,2013-01-31 07:54:00,
2013-01-31 01:59:00,14.0,10.9,29.98,WNW,301,0.0,9.0,87,0.00,,SKC,0.00,VWS V13.01,2013-01-31 07:59:00,
2013-01-31 02:04:00,14.0,10.9,29.98,WNW,297,0.0,5.0,87,0.00,,SKC,0.00,VWS V13.01,2013-01-31 08:04:00,
2013-01-31 02:09:00,13.9,10.8,29.98,NNE,18,0.0,1.0,87,0.00,,SKC,0.00,VWS V13.01,2013-01-31 08:09:00,
2013-01-31 02:14:00,13.7,10.6,29.98,WNW,303,0.0,6.0,87,0.00,,SKC,0.00,VWS V13.01,2013-01-31 08:14:00,
2013-01-31 02:19:00,13.7,10.6,30.00,NW,312,0.0,1.0,87,0.00,,SKC,0.00,VWS V13.01,2013-01-31 08:19:00,
2013-01-31 02:24:00,13.6,10.5,30.00,NNW,328,0.0,7.0,87,0.00,,SKC,0.00,VWS V13.01,2013-01-31 08:24:00,
2013-01-31 02:29:00,13.4,10.3,30.00,North,358,0.0,5.0,87,0.00,,SKC,0.00,VWS V13.01,2013-01-31 08:29:00,
2013-01-31 02:34:00,13.2,10.1,30.00,NW,314,0.0,8.0,87,0.00,,SKC,0.00,VWS V13.01,2013-01-31 08:34:00,
2013-01-31 02:39:00,13.0,9.9,30.00,NW,309,0.0,9.0,87,0.00,,SKC,0.00,VWS V13.01,2013-01-31 08:39:00,
2013-01-31 02:44:00,12.8,9.7,30.00,NW,314,0.0,0.0,87,0.00,,SKC,0.00,VWS V13.01,2013-01-31 08:44:00,
2013-01-31 02:49:00,12.6,9.5,30.00,NW,319,0.0,0.0,87,0.00,,SKC,0.00,VWS V13.01,2013-01-31 08:49:00,
2013-01-31 02:54:00,12.3,9.2,30.00,NW,309,0.0,11.0,87,0.00,,SKC,0.00,VWS V13.01,2013-01-31 08:54:00,
2013-01-31 02:59:00,12.2,9.1,30.00,NW,320,2.0,9.0,87,0.00,,SKC,0.00,VWS V13.01,2013-01-31 08:59:00,
2013-01-31 03:04:00,11.9,8.8,30.01,NNW,328,0.0,0.0,87,0.00,,SKC,0.00,VWS V13.01,2013-01-31 09:04:00,
2013-01-31 03:09:00,11.8,8.4,30.01,NW,326,0.0,6.0,86,0.00,,SKC,0.00,VWS V13.01,2013-01-31 09:09:00,
2013-01-31 03:14:00,11.7,8.3,30.00,NNW,329,9.0,9.0,86,0.00,,SKC,0.00,VWS V13.01,2013-01-31 09:14:00,
2013-01-31 03:19:00,11.6,8.2,30.01,NW,312,0.0,0.0,86,0.00,,SKC,0.00,VWS V13.01,2013-01-31 09:19:00,
2013-01-31 03:25:00,11.4,8.0,30.01,NW,326,5.0,8.0,86,0.00,,SKC,0.00,VWS V13.01,2013-01-31 09:25:00,
2013-01-31 03:30:00,11.2,7.8,30.01,North,358,0.0,6.0,86,0.00,,SKC,0.00,VWS V13.01,2013-01-31 09:30:00,
2013-01-31 03:35:00,11.0,7.6,30.01,WNW,295,5.0,9.0,86,0.00,,SKC,0.00,VWS V13.01,2013-01-31 09:35:00,
2013-01-31 03:40:00,10.8,7.4,30.01,NNW,339,0.0,1.0,86,0.00,,SKC,0.00,VWS V13.01,2013-01-31 09:40:00,
2013-01-31 03:45:00,10.6,7.2,30.00,NNW,335,0.0,7.0,86,0.00,,SKC,0.00,VWS V13.01,2013-01-31 09:45:00,
2013-01-31 03:50:00,10.4,7.1,30.01,WNW,295,9.0,16.0,86,0.00,,SKC,0.00,VWS V13.01,2013-01-31 09:50:00,
2013-01-31 03:55:00,10.2,6.6,30.01,NW,323,0.0,8.0,85,0.00,,SKC,0.00,VWS V13.01,2013-01-31 09:55:00,
2013-01-31 04:00:00,10.0,6.7,30.01,NNW,339,0.0,8.0,86,0.00,,SKC,0.00,VWS V13.01,2013-01-31 10:00:00,
2013-01-31 04:05:00,9.9,6.6,30.01,North,3,0.0,1.0,86,0.00,,SKC,0.00,VWS V13.01,2013-01-31 10:05:00,
2013-01-31 04:10:00,9.7,6.1,30.01,North,8,0.0,0.0,85,0.00,,SKC,0.00,VWS V13.01,2013-01-31 10:10:00,
2013-01-31 04:15:00,9.6,6.0,30.01,North,8,0.0,0.0,85,0.00,,SKC,0.00,VWS V13.01,2013-01-31 10:15:00,
2013-01-31 04:20:00,9.4,6.1,30.02,NW,317,0.0,1.0,86,0.00,,SKC,0.00,VWS V13.01,2013-01-31 10:20:00,
2013-01-31 04:25:00,9.3,6.0,30.02,WNW,301,0.0,1.0,86,0.00,,SKC,0.00,VWS V13.01,2013-01-31 10:25:00,
2013-01-31 04:30:00,9.2,5.6,30.02,WNW,299,0.0,0.0,85,0.00,,SKC,0.00,VWS V13.01,2013-01-31 10:30:00,
2013-01-31 04:35:00,9.1,5.5,30.02,WNW,299,0.0,0.0,85,0.00,,SKC,0.00,VWS V13.01,2013-01-31 10:35:00,
2013-01-31 04:40:00,9.0,5.4,30.03,WNW,300,0.0,0.0,85,0.00,,SKC,0.00,VWS V13.01,2013-01-31 10:40:00,
2013-01-31 04:45:00,9.0,5.4,30.03,NW,305,0.0,0.0,85,0.00,,SKC,0.00,VWS V13.01,2013-01-31 10:45:00,
2013-01-31 04:50:00,8.9,5.3,30.03,NW,309,0.0,0.0,85,0.00,,SKC,0.00,VWS V13.01,2013-01-31 10:50:00,
2013-01-31 04:55:00,8.9,5.3,30.04,NW,314,0.0,0.0,85,0.00,,SKC,0.00,VWS V13.01,2013-01-31 10:55:00,
2013-01-31 05:00:00,8.9,5.3,30.04,NW,314,0.0,0.0,85,0.00,,SKC,0.00,VWS V13.01,2013-01-31 11:00:00,
2013-01-31 05:05:00,8.8,5.2,30.04,NW,314,0.0,0.0,85,0.00,,SKC,0.00,VWS V13.01,2013-01-31 11:05:00,
2013-01-31 05:10:00,8.7,5.1,30.05,NW,314,0.0,0.0,85,0.00,,SKC,0.00,VWS V13.01,2013-01-31 11:10:00,
2013-01-31 05:15:00,8.7,5.1,30.05,NW,314,0.0,0.0,85,0.00,,SKC,0.00,VWS V13.01,2013-01-31 11:15:00,
2013-01-31 05:20:00,8.6,5.3,30.05,NW,313,0.0,0.0,86,0.00,,SKC,0.00,VWS V13.01,2013-01-31 11:20:00,
2013-01-31 05:25:00,8.5,5.2,30.05,NW,313,0.0,0.0,86,0.00,,SKC,0.00,VWS V13.01,2013-01-31 11:25:00,
2013-01-31 05:30:00,8.5,5.2,30.05,NW,314,0.0,0.0,86,0.00,,SKC,0.00,VWS V13.01,2013-01-31 11:30:00,
2013-01-31 05:35:00,8.5,4.9,30.05,NW,314,0.0,0.0,85,0.00,,SKC,0.00,VWS V13.01,2013-01-31 11:35:00,
2013-01-31 05:40:00,8.5,5.2,30.05,NW,307,7.0,9.0,86,0.00,,SKC,0.00,VWS V13.01,2013-01-31 11:40:00,
2013-01-31 05:45:00,8.6,5.3,30.05,NW,307,0.0,0.0,86,0.00,,SKC,0.00,VWS V13.01,2013-01-31 11:45:00,
2013-01-31 05:50:00,8.6,5.3,30.06,NNW,328,0.0,8.0,86,0.00,,SKC,0.00,VWS V13.01,2013-01-31 11:50:00,
2013-01-31 05:55:00,8.7,5.4,30.05,NW,304,0.0,11.0,86,0.00,,SKC,0.00,VWS V13.01,2013-01-31 11:55:00,
2013-01-31 06:00:00,8.8,5.5,30.05,NW,304,0.0,0.0,86,0.00,,SKC,0.00,VWS V13.01,2013-01-31 12:00:00,
2013-01-31 06:05:00,8.9,5.6,30.05,NW,314,0.0,1.0,86,0.00,,SKC,0.00,VWS V13.01,2013-01-31 12:05:00,
2013-01-31 06:10:00,8.9,5.6,30.05,NNW,341,0.0,6.0,86,0.00,,SKC,0.00,VWS V13.01,2013-01-31 12:10:00,
2013-01-31 06:15:00,8.9,5.6,30.05,NW,324,0.0,0.0,86,0.00,,SKC,0.00,VWS V13.01,2013-01-31 12:15:00,
2013-01-31 06:20:00,8.9,5.6,30.06,NW,307,0.0,1.0,86,0.00,,SKC,0.00,VWS V13.01,2013-01-31 12:20:00,
2013-01-31 06:25:00,8.9,5.6,30.06,NNE,21,5.0,9.0,86,0.00,,SKC,0.00,VWS V13.01,2013-01-31 12:25:00,
2013-01-31 06:30:00,8.8,5.5,30.06,NW,305,0.0,0.0,86,0.00,,SKC,0.00,VWS V13.01,2013-01-31 12:30:00,
2013-01-31 06:35:00,8.8,5.5,30.06,NNW,328,4.0,9.0,86,0.00,,SKC,0.00,VWS V13.01,2013-01-31 12:35:00,
2013-01-31 06:40:00,8.7,5.4,30.06,NW,315,11.0,13.0,86,0.00,,SKC,0.00,VWS V13.01,2013-01-31 12:40:00,
2013-01-31 06:45:00,8.7,5.4,30.07,NNW,332,1.0,11.0,86,0.00,,SKC,0.00,VWS V13.01,2013-01-31 12:45:00,
2013-01-31 06:50:00,8.6,5.3,30.08,NW,309,0.0,5.0,86,0.00,,SKC,0.00,VWS V13.01,2013-01-31 12:50:00,
2013-01-31 06:55:00,8.5,5.2,30.08,NW,326,10.0,11.0,86,0.00,,SKC,0.00,VWS V13.01,2013-01-31 12:55:00,
2013-01-31 07:00:00,8.5,5.2,30.08,NNW,334,0.0,13.0,86,0.00,,SKC,0.00,VWS V13.01,2013-01-31 13:00:00,
2013-01-31 07:05:00,8.5,4.9,30.08,NW,318,9.0,9.0,85,0.00,,SKC,0.00,VWS V13.01,2013-01-31 13:05:00,
2013-01-31 07:10:00,8.5,4.9,30.08,WNW,297,5.0,14.0,85,0.00,,SKC,0.00,VWS V13.01,2013-01-31 13:10:00,
2013-01-31 07:15:00,8.5,4.9,30.08,NW,320,0.0,0.0,85,0.00,,SKC,0.00,VWS V13.01,2013-01-31 13:15:00,
2013-01-31 07:20:00,8.4,4.8,30.09,North,351,8.0,8.0,85,0.00,,SKC,0.00,VWS V13.01,2013-01-31 13:20:00,
2013-01-31 07:25:00,8.4,4.8,30.09,NW,305,5.0,11.0,85,0.00,,SKC,0.00,VWS V13.01,2013-01-31 13:25:00,
2013-01-31 07:30:00,8.3,4.7,30.09,NNE,30,1.0,8.0,85,0.00,,SKC,0.00,VWS V13.01,2013-01-31 13:30:00,
2013-01-31 07:35:00,8.3,4.7,30.09,NW,314,0.0,16.0,85,0.00,,SKC,0.00,VWS V13.01,2013-01-31 13:35:00,
2013-01-31 07:40:00,8.3,4.7,30.10,WNW,302,0.0,1.0,85,0.00,,SKC,0.00,VWS V13.01,2013-01-31 13:40:00,
2013-01-31 07:45:00,8.3,4.7,30.11,WNW,303,8.0,12.0,85,0.00,,SKC,0.00,VWS V13.01,2013-01-31 13:45:00,
2013-01-31 07:50:00,8.3,4.7,30.11,WNW,284,9.0,13.0,85,0.00,,SKC,0.00,VWS V13.01,2013-01-31 13:50:00,
2013-01-31 07:55:00,8.3,4.7,30.11,NW,308,8.0,13.0,85,0.00,,SKC,0.00,VWS V13.01,2013-01-31 13:55:00,
2013-01-31 08:00:00,8.3,4.7,30.12,WNW,294,5.0,15.0,85,0.00,,SKC,0.00,VWS V13.01,2013-01-31 14:00:00,
2013-01-31 08:05:00,8.3,4.5,30.12,NNW,328,9.0,9.0,84,0.00,,SKC,0.00,VWS V13.01,2013-01-31 14:05:00,
2013-01-31 08:10:00,8.3,4.5,30.12,WNW,293,7.0,13.0,84,0.00,,SKC,0.00,VWS V13.01,2013-01-31 14:10:00,
2013-01-31 08:15:00,8.4,4.6,30.12,NW,305,5.0,14.0,84,0.00,,SKC,0.00,VWS V13.01,2013-01-31 14:15:00,
2013-01-31 08:20:00,8.4,4.6,30.12,NNW,341,13.0,14.0,84,0.00,,SKC,0.00,VWS V13.01,2013-01-31 14:20:00,
2013-01-31 08:25:00,8.4,4.3,30.12,NW,317,0.0,9.0,83,0.00,,SKC,0.00,VWS V13.01,2013-01-31 14:25:00,
2013-01-31 08:30:00,8.5,4.4,30.13,West,275,15.0,15.0,83,0.00,,SKC,0.00,VWS V13.01,2013-01-31 14:30:00,
2013-01-31 08:35:00,8.5,4.4,30.14,WNW,291,7.0,16.0,83,0.00,,SKC,0.00,VWS V13.01,2013-01-31 14:35:00,
2013-01-31 08:40:00,8.6,4.5,30.14,NW,314,12.0,15.0,83,0.00,,SKC,0.00,VWS V13.01,2013-01-31 14:40:00,
2013-01-31 08:45:00,8.7,4.6,30.14,WNW,291,8.0,18.0,83,0.00,,SKC,0.00,VWS V13.01,2013-01-31 14:45:00,
2013-01-31 08:50:00,8.7,4.6,30.15,WNW,299,6.0,12.0,83,0.00,,SKC,0.00,VWS V13.01,2013-01-31 14:50:00,
2013-01-31 08:55:00,8.8,4.7,30.15,NW,305,0.0,12.0,83,0.00,,SKC,0.00,VWS V13.01,2013-01-31 14:55:00,
2013-01-31 09:00:00,8.9,4.8,30.15,WNW,291,7.0,19.0,83,0.00,,SKC,0.00,VWS V13.01,2013-01-31 15:00:00,
2013-01-31 09:05:00,9.0,4.9,30.16,WNW,289,0.0,1.0,83,0.00,,SKC,0.00,VWS V13.01,2013-01-31 15:05:00,
2013-01-31 09:10:00,9.1,5.0,30.16,WNW,291,14.0,15.0,83,0.00,,SKC,0.00,VWS V13.01,2013-01-31 15:10:00,
2013-01-31 09:15:00,9.2,4.8,30.17,WNW,293,11.0,21.0,82,0.00,,SKC,0.00,VWS V13.01,2013-01-31 15:15:00,
2013-01-31 09:20:00,9.2,4.8,30.17,WNW,303,11.0,17.0,82,0.00,,SKC,0.00,VWS V13.01,2013-01-31 15:20:00,
2013-01-31 09:25:00,9.3,4.9,30.17,NW,315,14.0,14.0,82,0.00,,SKC,0.00,VWS V13.01,2013-01-31 15:25:00,
2013-01-31 09:30:00,9.4,5.3,30.17,WNW,298,0.0,11.0,83,0.00,,SKC,0.00,VWS V13.01,2013-01-31 15:30:00,
2013-01-31 09:35:00,9.6,5.5,30.18,NW,316,1.0,13.0,83,0.00,,SKC,0.00,VWS V13.01,2013-01-31 15:35:00,
2013-01-31 09:40:00,9.9,5.8,30.18,WNW,297,13.0,20.0,83,0.00,,SKC,0.00,VWS V13.01,2013-01-31 15:40:00,
2013-01-31 09:45:00,9.9,5.8,30.19,NW,307,13.0,30.0,83,0.00,,SKC,0.00,VWS V13.01,2013-01-31 15:45:00,
2013-01-31 09:50:00,9.6,5.2,30.19,West,280,15.0,28.0,82,0.00,,SKC,0.00,VWS V13.01,2013-01-31 15:50:00,
2013-01-31 09:55:00,9.5,5.1,30.20,NW,313,7.0,25.0,82,0.00,,SKC,0.00,VWS V13.01,2013-01-31 15:55:00,
2013-01-31 10:00:00,9.5,5.1,30.20,WNW,293,16.0,23.0,82,0.00,,SKC,0.00,VWS V13.01,2013-01-31 16:00:00,
2013-01-31 10:05:00,9.6,5.2,30.21,NNW,342,17.0,17.0,82,0.00,,SKC,0.00,VWS V13.01,2013-01-31 16:05:00,
2013-01-31 10:10:00,9.8,5.4,30.21,NNW,342,0.0,21.0,82,0.00,,SKC,0.00,VWS V13.01,2013-01-31 16:10:00,
2013-01-31 10:15:00,9.6,4.9,30.21,WNW,289,26.0,29.0,81,0.00,,SKC,0.00,VWS V13.01,2013-01-31 16:15:00,
2013-01-31 10:20:00,9.5,4.9,30.21,NW,309,20.0,29.0,81,0.00,,SKC,0.00,VWS V13.01,2013-01-31 16:20:00,
2013-01-31 10:25:00,9.4,4.8,30.22,WNW,286,13.0,24.0,81,0.00,,SKC,0.00,VWS V13.01,2013-01-31 16:25:00,
2013-01-31 10:30:00,9.2,4.3,30.22,WNW,292,21.0,21.0,80,0.00,,SKC,0.00,VWS V13.01,2013-01-31 16:30:00,
2013-01-31 10:35:00,9.2,4.6,30.23,WNW,301,9.0,24.0,81,0.00,,SKC,0.00,VWS V13.01,2013-01-31 16:35:00,
2013-01-31 10:40:00,9.1,4.5,30.24,NW,305,14.0,21.0,81,0.00,,SKC,0.00,VWS V13.01,2013-01-31 16:40:00,
2013-01-31 10:45:00,9.1,4.5,30.24,WNW,300,7.0,16.0,81,0.00,,SKC,0.00,VWS V13.01,2013-01-31 16:45:00,
2013-01-31 10:50:00,9.1,4.5,30.24,NW,320,8.0,12.0,81,0.00,,SKC,0.00,VWS V13.01,2013-01-31 16:50:00,
2013-01-31 10:55:00,9.4,5.0,30.25,North,358,8.0,12.0,82,0.00,,SKC,0.00,VWS V13.01,2013-01-31 16:55:00,
2013-01-31 11:00:00,9.4,5.0,30.25,North,3,0.0,14.0,82,0.00,,SKC,0.00,VWS V13.01,2013-01-31 17:00:00,
2013-01-31 11:05:00,9.3,4.9,30.25,NW,313,16.0,18.0,82,0.00,,SKC,0.00,VWS V13.01,2013-01-31 17:05:00,
2013-01-31 11:10:00,9.3,4.9,30.26,WNW,299,8.0,20.0,82,0.00,,SKC,0.00,VWS V13.01,2013-01-31 17:10:00,
2013-01-31 11:15:00,9.3,4.9,30.26,NW,312,8.0,11.0,82,0.00,,SKC,0.00,VWS V13.01,2013-01-31 17:15:00,
2013-01-31 11:20:00,9.4,5.0,30.26,West,279,14.0,19.0,82,0.00,,SKC,0.00,VWS V13.01,2013-01-31 17:20:00,
2013-01-31 11:25:00,9.5,5.1,30.26,WNW,284,18.0,19.0,82,0.00,,SKC,0.00,VWS V13.01,2013-01-31 17:25:00,
2013-01-31 11:30:00,9.6,5.2,30.26,NW,326,0.0,15.0,82,0.00,,SKC,0.00,VWS V13.01,2013-01-31 17:30:00,
2013-01-31 11:35:00,9.8,5.2,30.26,NNW,331,8.0,17.0,81,0.00,,SKC,0.00,VWS V13.01,2013-01-31 17:35:00,
2013-01-31 11:40:00,9.7,5.1,30.26,NNW,330,11.0,15.0,81,0.00,,SKC,0.00,VWS V13.01,2013-01-31 17:40:00,
2013-01-31 11:45:00,9.9,5.0,30.26,North,353,22.0,22.0,80,0.00,,SKC,0.00,VWS V13.01,2013-01-31 17:45:00,
2013-01-31 11:50:00,9.8,4.9,30.27,North,8,9.0,13.0,80,0.00,,SKC,0.00,VWS V13.01,2013-01-31 17:50:00,
2013-01-31 11:55:00,10.0,5.3,30.27,NW,311,11.0,18.0,81,0.00,,SKC,0.00,VWS V13.01,2013-01-31 17:55:00,
2013-01-31 12:00:00,10.2,5.5,30.27,WNW,289,20.0,25.0,81,0.00,,SKC,0.00,VWS V13.01,2013-01-31 18:00:00,
2013-01-31 12:05:00,10.1,5.2,30.27,North,358,12.0,21.0,80,0.00,,SKC,0.00,VWS V13.01,2013-01-31 18:05:00,
2013-01-31 12:10:00,10.2,5.5,30.27,NW,311,0.0,23.0,81,0.00,,SKC,0.00,VWS V13.01,2013-01-31 18:10:00,
2013-01-31 12:15:00,10.5,5.6,30.27,WNW,282,5.0,21.0,80,0.00,,SKC,0.00,VWS V13.01,2013-01-31 18:15:00,
2013-01-31 12:20:00,10.8,5.9,30.27,WNW,302,21.0,21.0,80,0.00,,SKC,0.00,VWS V13.01,2013-01-31 18:20:00,
2013-01-31 12:25:00,10.9,5.9,30.27,NW,323,14.0,16.0,80,0.00,,SKC,0.00,VWS V13.01,2013-01-31 18:25:00,
2013-01-31 12:30:00,11.1,6.2,30.28,North,354,8.0,17.0,80,0.00,,SKC,0.00,VWS V13.01,2013-01-31 18:30:00,
2013-01-31 12:35:00,11.2,6.2,30.28,WNW,284,13.0,15.0,80,0.00,,SKC,0.00,VWS V13.01,2013-01-31 18:35:00,
2013-01-31 12:40:00,11.1,6.2,30.28,NW,316,8.0,19.0,80,0.00,,SKC,0.00,VWS V13.01,2013-01-31 18:40:00,
2013-01-31 12:45:00,10.8,5.9,30.28,NW,321,14.0,22.0,80,0.00,,SKC,0.00,VWS V13.01,2013-01-31 18:45:00,
2013-01-31 12:50:00,10.6,5.4,30.28,WNW,295,15.0,15.0,79,0.00,,SKC,0.00,VWS V13.01,2013-01-31 18:50:00,
2013-01-31 12:55:00,10.5,5.3,30.28,WNW,295,6.0,13.0,79,0.00,,SKC,0.00,VWS V13.01,2013-01-31 18:55:00,
2013-01-31 13:00:00,10.5,5.3,30.28,North,8,0.0,19.0,79,0.00,,SKC,0.00,VWS V13.01,2013-01-31 19:00:00,
2013-01-31 13:05:00,10.5,5.3,30.29,NE,39,5.0,15.0,79,0.00,,SKC,0.00,VWS V13.01,2013-01-31 19:05:00,
2013-01-31 13:10:00,10.8,5.9,30.29,NNE,32,3.0,18.0,80,0.00,,SKC,0.00,VWS V13.01,2013-01-31 19:10:00,
2013-01-31 13:15:00,11.0,6.1,30.29,NNW,338,1.0,14.0,80,0.00,,SKC,0.00,VWS V13.01,2013-01-31 19:15:00,
2013-01-31 13:20:00,11.0,6.1,30.29,NNW,339,0.0,12.0,80,0.00,,SKC,0.00,VWS V13.01,2013-01-31 19:20:00,
2013-01-31 13:25:00,11.3,6.1,30.29,WNW,303,20.0,22.0,79,0.00,,SKC,0.00,VWS V13.01,2013-01-31 19:25:00,
2013-01-31 13:30:00,11.6,6.4,30.29,WNW,292,8.0,17.0,79,0.00,,SKC,0.00,VWS V13.01,2013-01-31 19:30:00,
2013-01-31 13:35:00,11.7,6.2,30.29,NNE,16,9.0,15.0,78,0.00,,SKC,0.00,VWS V13.01,2013-01-31 19:35:00,
2013-01-31 13:40:00,11.4,5.9,30.29,WNW,296,29.0,29.0,78,0.00,,SKC,0.00,VWS V13.01,2013-01-31 19:40:00,
2013-01-31 13:45:00,10.8,4.7,30.29,NW,312,13.0,26.0,76,0.00,,SKC,0.00,VWS V13.01,2013-01-31 19:45:00,
2013-01-31 13:50:00,10.4,4.6,30.29,North,349,7.0,16.0,77,0.00,,SKC,0.00,VWS V13.01,2013-01-31 19:50:00,
2013-01-31 13:55:00,10.4,4.9,30.29,WNW,288,11.0,20.0,78,0.00,,SKC,0.00,VWS V13.01,2013-01-31 19:55:00,
2013-01-31 14:00:00,10.6,5.1,30.29,NNE,16,1.0,18.0,78,0.00,,SKC,0.00,VWS V13.01,2013-01-31 20:00:00,
2013-01-31 14:05:00,10.8,5.3,30.30,NNW,348,0.0,15.0,78,0.00,,SKC,0.00,VWS V13.01,2013-01-31 20:05:00,
2013-01-31 14:10:00,11.0,5.5,30.29,NW,311,1.0,21.0,78,0.00,,SKC,0.00,VWS V13.01,2013-01-31 20:10:00,
2013-01-31 14:15:00,11.3,5.5,30.29,NW,316,19.0,28.0,77,0.00,,SKC,0.00,VWS V13.01,2013-01-31 20:15:00,
2013-01-31 14:20:00,11.4,5.6,30.30,WNW,290,16.0,16.0,77,0.00,,SKC,0.00,VWS V13.01,2013-01-31 20:20:00,
2013-01-31 14:25:00,11.6,5.8,30.30,NW,305,5.0,19.0,77,0.00,,SKC,0.00,VWS V13.01,2013-01-31 20:25:00,
2013-01-31 14:30:00,11.6,5.8,30.29,WNW,303,18.0,20.0,77,0.00,,SKC,0.00,VWS V13.01,2013-01-31 20:30:00,
2013-01-31 14:35:00,11.7,5.9,30.30,WNW,297,0.0,13.0,77,0.00,,SKC,0.00,VWS V13.01,2013-01-31 20:35:00,
2013-01-31 14:40:00,12.2,6.4,30.30,NNW,339,0.0,22.0,77,0.00,,SKC,0.00,VWS V13.01,2013-01-31 20:40:00,
2013-01-31 14:45:00,12.1,6.0,30.30,WNW,294,8.0,17.0,76,0.00,,SKC,0.00,VWS V13.01,2013-01-31 20:45:00,
2013-01-31 14:50:00,11.9,5.8,30.30,NNE,32,6.0,16.0,76,0.00,,SKC,0.00,VWS V13.01,2013-01-31 20:50:00,
2013-01-31 14:55:00,12.0,6.2,30.30,NW,324,13.0,15.0,77,0.00,,SKC,0.00,VWS V13.01,2013-01-31 20:55:00,
2013-01-31 15:00:00,12.1,6.3,30.31,WNW,287,16.0,19.0,77,0.00,,SKC,0.00,VWS V13.01,2013-01-31 21:00:00,
2013-01-31 15:05:00,11.7,5.3,30.31,NNW,336,8.0,20.0,75,0.00,,SKC,0.00,VWS V13.01,2013-01-31 21:05:00,
2013-01-31 15:10:00,11.6,5.8,30.31,NW,307,7.0,15.0,77,0.00,,SKC,0.00,VWS V13.01,2013-01-31 21:10:00,
2013-01-31 15:15:00,11.8,6.3,30.31,WNW,284,0.0,19.0,78,0.00,,SKC,0.00,VWS V13.01,2013-01-31 21:15:00,
2013-01-31 15:20:00,11.9,5.8,30.31,NW,321,20.0,20.0,76,0.00,,SKC,0.00,VWS V13.01,2013-01-31 21:20:00,
2013-01-31 15:25:00,11.8,5.7,30.32,WNW,298,0.0,11.0,76,0.00,,SKC,0.00,VWS V13.01,2013-01-31 21:25:00,
2013-01-31 15:30:00,11.7,5.6,30.32,West,276,16.0,21.0,76,0.00,,SKC,0.00,VWS V13.01,2013-01-31 21:30:00,
2013-01-31 15:35:00,11.6,5.8,30.32,North,358,7.0,15.0,77,0.00,,SKC,0.00,VWS V13.01,2013-01-31 21:35:00,
2013-01-31 15:40:00,11.7,5.9,30.33,WNW,298,11.0,11.0,77,0.00,,SKC,0.00,VWS V13.01,2013-01-31 21:40:00,
2013-01-31 15:45:00,11.6,5.5,30.33,WNW,301,14.0,19.0,76,0.00,,SKC,0.00,VWS V13.01,2013-01-31 21:45:00,
2013-01-31 15:50:00,11.6,5.5,30.33,NNW,343,12.0,13.0,76,0.00,,SKC,0.00,VWS V13.01,2013-01-31 21:50:00,
2013-01-31 15:55:00,11.3,5.2,30.33,North,358,1.0,13.0,76,0.00,,SKC,0.00,VWS V13.01,2013-01-31 21:55:00,
2013-01-31 16:00:00,11.2,5.4,30.33,WNW,293,12.0,15.0,77,0.00,,SKC,0.00,VWS V13.01,2013-01-31 22:00:00,
2013-01-31 16:05:00,11.3,4.9,30.33,WNW,292,6.0,18.0,75,0.00,,SKC,0.00,VWS V13.01,2013-01-31 22:05:00,
2013-01-31 16:10:00,11.2,4.8,30.33,WNW,288,12.0,15.0,75,0.00,,SKC,0.00,VWS V13.01,2013-01-31 22:10:00,
2013-01-31 16:15:00,10.9,4.0,30.34,WNW,287,8.0,18.0,73,0.00,,SKC,0.00,VWS V13.01,2013-01-31 22:15:00,
2013-01-31 16:20:00,10.9,4.2,30.34,NNW,341,5.0,12.0,74,0.00,,SKC,0.00,VWS V13.01,2013-01-31 22:20:00,
2013-01-31 16:25:00,11.1,4.4,30.34,WNW,301,12.0,20.0,74,0.00,,SKC,0.00,VWS V13.01,2013-01-31 22:25:00,
2013-01-31 16:30:00,11.4,5.0,30.34,WNW,303,9.0,18.0,75,0.00,,SKC,0.00,VWS V13.01,2013-01-31 22:30:00,
2013-01-31 16:35:00,11.2,4.0,30.34,West,278,1.0,17.0,72,0.00,,SKC,0.00,VWS V13.01,2013-01-31 22:35:00,
2013-01-31 16:40:00,11.3,4.3,30.34,NW,308,15.0,20.0,73,0.00,,SKC,0.00,VWS V13.01,2013-01-31 22:40:00,
2013-01-31 16:45:00,11.0,3.8,30.34,WNW,294,22.0,22.0,72,0.00,,SKC,0.00,VWS V13.01,2013-01-31 22:45:00,
2013-01-31 16:50:00,10.5,3.3,30.35,WNW,297,13.0,21.0,72,0.00,,SKC,0.00,VWS V13.01,2013-01-31 22:50:00,
2013-01-31 16:55:00,10.3,3.1,30.35,NNW,342,15.0,23.0,72,0.00,,SKC,0.00,VWS V13.01,2013-01-31 22:55:00,
2013-01-31 17:00:00,10.0,2.8,30.35,NW,305,15.0,15.0,72,0.00,,SKC,0.00,VWS V13.01,2013-01-31 23:00:00,
2013-01-31 17:05:00,9.8,2.6,30.35,NW,309,8.0,18.0,72,0.00,,SKC,0.00,VWS V13.01,2013-01-31 23:05:00,
2013-01-31 17:10:00,9.5,2.3,30.35,WNW,301,18.0,19.0,72,0.00,,SKC,0.00,VWS V13.01,2013-01-31 23:10:00,
2013-01-31 17:15:00,9.3,2.1,30.35,NW,308,6.0,19.0,72,0.00,,SKC,0.00,VWS V13.01,2013-01-31 23:15:00,
2013-01-31 17:20:00,9.1,2.2,30.35,NNE,23,6.0,9.0,73,0.00,,SKC,0.00,VWS V13.01,2013-01-31 23:20:00,
2013-01-31 17:25:00,9.0,2.4,30.36,WNW,298,8.0,9.0,74,0.00,,SKC,0.00,VWS V13.01,2013-01-31 23:25:00,
2013-01-31 17:30:00,8.9,2.3,30.36,WNW,293,13.0,17.0,74,0.00,,SKC,0.00,VWS V13.01,2013-01-31 23:30:00,
2013-01-31 17:35:00,8.6,2.0,30.36,WNW,289,0.0,6.0,74,0.00,,SKC,0.00,VWS V13.01,2013-01-31 23:35:00,
2013-01-31 17:40:00,8.4,1.8,30.36,NW,324,0.0,1.0,74,0.00,,SKC,0.00,VWS V13.01,2013-01-31 23:40:00,
2013-01-31 17:45:00,8.2,1.9,30.36,NW,315,0.0,1.0,75,0.00,,SKC,0.00,VWS V13.01,2013-01-31 23:45:00,
2013-01-31 17:50:00,8.0,1.7,30.36,NW,308,11.0,12.0,75,0.00,,SKC,0.00,VWS V13.01,2013-01-31 23:50:00,
2013-01-31 17:55:00,7.8,1.5,30.36,NW,316,7.0,11.0,75,0.00,,SKC,0.00,VWS V13.01,2013-01-31 23:55:00,
2013-01-31 18:00:00,7.5,1.2,30.36,NW,305,16.0,17.0,75,0.00,,SKC,0.00,VWS V13.01,2013-02-01 00:00:00,
2013-01-31 18:05:00,7.3,1.0,30.37,NW,324,0.0,0.0,75,0.00,,SKC,0.00,VWS V13.01,2013-02-01 00:05:00,
2013-01-31 18:10:00,7.3,1.3,30.37,NW,305,7.0,13.0,76,0.00,,SKC,0.00,VWS V13.01,2013-02-01 00:10:00,
2013-01-31 18:15:00,7.1,1.1,30.37,NNW,341,4.0,11.0,76,0.00,,SKC,0.00,VWS V13.01,2013-02-01 00:15:00,
2013-01-31 18:20:00,7.0,1.0,30.37,NW,307,1.0,1.0,76,0.00,,SKC,0.00,VWS V13.01,2013-02-01 00:20:00,
2013-01-31 18:25:00,6.9,0.9,30.37,WNW,300,0.0,7.0,76,0.00,,SKC,0.00,VWS V13.01,2013-02-01 00:25:00,
2013-01-31 18:30:00,6.7,1.0,30.38,WNW,301,0.0,13.0,77,0.00,,SKC,0.00,VWS V13.01,2013-02-01 00:30:00,
2013-01-31 18:36:00,6.5,0.8,30.38,North,8,0.0,6.0,77,0.00,,SKC,0.00,VWS V13.01,2013-02-01 00:36:00,
2013-01-31 18:41:00,6.4,0.7,30.38,NNW,344,0.0,2.0,77,0.00,,SKC,0.00,VWS V13.01,2013-02-01 00:41:00,
2013-01-31 18:46:00,6.3,0.6,30.38,NW,304,12.0,12.0,77,0.00,,SKC,0.00,VWS V13.01,2013-02-01 00:46:00,
2013-01-31 18:51:00,6.2,0.6,30.38,NNW,328,0.0,9.0,77,0.00,,SKC,0.00,VWS V13.01,2013-02-01 00:51:00,
2013-01-31 18:56:00,6.1,0.4,30.38,NNW,327,0.0,1.0,77,0.00,,SKC,0.00,VWS V13.01,2013-02-01 00:56:00,
2013-01-31 19:01:00,6.0,0.3,30.38,NW,326,0.0,1.0,77,0.00,,SKC,0.00,VWS V13.01,2013-02-01 01:01:00,
2013-01-31 19:06:00,5.9,0.5,30.39,NW,318,0.0,0.0,78,0.00,,SKC,0.00,VWS V13.01,2013-02-01 01:06:00,
2013-01-31 19:11:00,5.8,0.4,30.38,NNW,342,0.0,0.0,78,0.00,,SKC,0.00,VWS V13.01,2013-02-01 01:11:00,
2013-01-31 19:16:00,5.7,0.3,30.38,North,358,0.0,9.0,78,0.00,,SKC,0.00,VWS V13.01,2013-02-01 01:16:00,
2013-01-31 19:21:00,5.6,0.2,30.39,NNW,340,5.0,9.0,78,0.00,,SKC,0.00,VWS V13.01,2013-02-01 01:21:00,
2013-01-31 19:26:00,5.5,0.1,30.39,NNW,341,5.0,9.0,78,0.00,,SKC,0.00,VWS V13.01,2013-02-01 01:26:00,
2013-01-31 19:31:00,5.4,0.0,30.39,NNW,347,0.0,1.0,78,0.00,,SKC,0.00,VWS V13.01,2013-02-01 01:31:00,
2013-01-31 19:36:00,5.3,0.2,30.39,NNW,330,7.0,9.0,79,0.00,,SKC,0.00,VWS V13.01,2013-02-01 01:36:00,
2013-01-31 19:41:00,5.3,0.2,30.39,NNW,342,0.0,1.0,79,0.00,,SKC,0.00,VWS V13.01,2013-02-01 01:41:00,
2013-01-31 19:46:00,5.2,0.1,30.39,North,358,0.0,0.0,79,0.00,,SKC,0.00,VWS V13.01,2013-02-01 01:46:00,
2013-01-31 19:51:00,5.1,0.0,30.39,WNW,298,0.0,6.0,79,0.00,,SKC,0.00,VWS V13.01,2013-02-01 01:51:00,
2013-01-31 19:56:00,5.0,-0.1,30.39,NNW,347,0.0,1.0,79,0.00,,SKC,0.00,VWS V13.01,2013-02-01 01:56:00,
2013-01-31 20:01:00,5.0,2.5,30.39,NW,324,7.0,9.0,89,0.00,,SKC,0.00,VWS V13.01,2013-02-01 02:01:00,
2013-01-31 20:06:00,4.9,-0.2,30.39,NNW,342,0.0,0.0,79,0.00,,SKC,0.00,VWS V13.01,2013-02-01 02:06:00,
2013-01-31 20:11:00,4.9,-0.2,30.40,NNW,345,0.0,0.0,79,0.00,,SKC,0.00,VWS V13.01,2013-02-01 02:11:00,
2013-01-31 20:16:00,4.8,-0.3,30.40,NNW,345,0.0,0.0,79,0.00,,SKC,0.00,VWS V13.01,2013-02-01 02:16:00,
2013-01-31 20:22:00,4.7,-0.4,30.40,NNW,343,8.0,8.0,79,0.00,,SKC,0.00,VWS V13.01,2013-02-01 02:22:00,
2013-01-31 20:27:00,4.7,-0.4,30.40,North,358,0.0,8.0,79,0.00,,SKC,0.00,VWS V13.01,2013-02-01 02:27:00,
2013-01-31 20:32:00,4.6,-0.5,30.40,NW,320,6.0,9.0,79,0.00,,SKC,0.00,VWS V13.01,2013-02-01 02:32:00,
2013-01-31 20:37:00,4.5,-0.6,30.40,NNW,345,0.0,1.0,79,0.00,,SKC,0.00,VWS V13.01,2013-02-01 02:37:00,
2013-01-31 20:42:00,4.5,-0.6,30.40,NW,314,0.0,4.0,79,0.00,,SKC,0.00,VWS V13.01,2013-02-01 02:42:00,
2013-01-31 20:47:00,4.5,-0.6,30.40,NW,320,0.0,1.0,79,0.00,,SKC,0.00,VWS V13.01,2013-02-01 02:47:00,
2013-01-31 20:52:00,4.4,-0.7,30.40,NNW,332,0.0,1.0,79,0.00,,SKC,0.00,VWS V13.01,2013-02-01 02:52:00,
2013-01-31 20:57:00,4.4,-0.7,30.41,North,350,0.0,2.0,79,0.00,,SKC,0.00,VWS V13.01,2013-02-01 02:57:00,
2013-01-31 21:02:00,4.3,-0.8,30.41,NW,312,4.0,6.0,79,0.00,,SKC,0.00,VWS V13.01,2013-02-01 03:02:00,
2013-01-31 21:07:00,4.2,-0.9,30.41,NW,320,4.0,10.0,79,0.00,,SKC,0.00,VWS V13.01,2013-02-01 03:07:00,
2013-01-31 21:12:00,4.2,-0.9,30.41,NW,324,0.0,0.0,79,0.00,,SKC,0.00,VWS V13.01,2013-02-01 03:12:00,
2013-01-31 21:17:00,4.1,-0.9,30.41,NNW,329,0.0,7.0,79,0.00,,SKC,0.00,VWS V13.01,2013-02-01 03:17:00,
2013-01-31 21:22:00,4.0,-1.0,30.40,NNW,329,0.0,6.0,79,0.00,,SKC,0.00,VWS V13.01,2013-02-01 03:22:00,
2013-01-31 21:27:00,3.9,-1.1,30.41,NW,313,1.0,11.0,79,0.00,,SKC,0.00,VWS V13.01,2013-02-01 03:27:00,
2013-01-31 21:32:00,3.8,-1.2,30.41,NW,305,5.0,9.0,79,0.00,,SKC,0.00,VWS V13.01,2013-02-01 03:32:00,
2013-01-31 21:37:00,3.8,-1.5,30.41,WNW,283,11.0,12.0,78,0.00,,SKC,0.00,VWS V13.01,2013-02-01 03:37:00,
2013-01-31 21:42:00,3.7,-1.6,30.42,WNW,303,0.0,0.0,78,0.00,,SKC,0.00,VWS V13.01,2013-02-01 03:42:00,
2013-01-31 21:47:00,3.7,-1.6,30.42,WNW,295,8.0,13.0,78,0.00,,SKC,0.00,VWS V13.01,2013-02-01 03:47:00,
2013-01-31 21:52:00,3.7,-1.6,30.42,NW,325,0.0,8.0,78,0.00,,SKC,0.00,VWS V13.01,2013-02-01 03:52:00,
2013-01-31 21:57:00,3.6,-2.0,30.42,NW,306,6.0,9.0,77,0.00,,SKC,0.00,VWS V13.01,2013-02-01 03:57:00,
2013-01-31 22:02:00,3.6,-2.0,30.43,NW,304,0.0,1.0,77,0.00,,SKC,0.00,VWS V13.01,2013-02-01 04:02:00,
2013-01-31 22:07:00,3.5,-2.1,30.42,WNW,298,0.0,0.0,77,0.00,,SKC,0.00,VWS V13.01,2013-02-01 04:07:00,
2013-01-31 22:12:00,3.5,-2.1,30.42,WNW,301,0.0,1.0,77,0.00,,SKC,0.00,VWS V13.01,2013-02-01 04:12:00,
2013-01-31 22:17:00,3.4,-2.2,30.42,NW,306,0.0,0.0,77,0.00,,SKC,0.00,VWS V13.01,2013-02-01 04:17:00,
2013-01-31 22:22:00,3.3,-2.3,30.43,NW,305,0.0,12.0,77,0.00,,SKC,0.00,VWS V13.01,2013-02-01 04:22:00,
2013-01-31 22:27:00,3.3,-2.3,30.42,NW,304,7.0,7.0,77,0.00,,SKC,0.00,VWS V13.01,2013-02-01 04:27:00,
2013-01-31 22:32:00,3.2,-2.4,30.43,NW,309,0.0,0.0,77,0.00,,SKC,0.00,VWS V13.01,2013-02-01 04:32:00,
2013-01-31 22:37:00,3.2,-2.1,30.43,NW,305,0.0,0.0,78,0.00,,SKC,0.00,VWS V13.01,2013-02-01 04:37:00,
2013-01-31 22:42:00,3.1,-2.2,30.42,NW,311,0.0,7.0,78,0.00,,SKC,0.00,VWS V13.01,2013-02-01 04:42:00,
2013-01-31 22:47:00,3.1,-2.2,30.42,NW,314,5.0,11.0,78,0.00,,SKC,0.00,VWS V13.01,2013-02-01 04:47:00,
2013-01-31 22:52:00,3.0,-2.3,30.42,NNW,342,0.0,0.0,78,0.00,,SKC,0.00,VWS V13.01,2013-02-01 04:52:00,
2013-01-31 22:57:00,2.9,-2.4,30.42,NNW,341,1.0,1.0,78,0.00,,SKC,0.00,VWS V13.01,2013-02-01 04:57:00,
2013-01-31 23:00:00,2.9,-2.4,30.42,NNW,341,0.0,0.0,78,0.00,,SKC,0.00,VWS V13.01,2013-02-01 05:00:00,
2013-01-31 23:02:00,2.9,-2.1,30.42,NNW,335,0.0,1.0,79,0.00,,SKC,0.00,VWS V13.01,2013-02-01 05:02:00,
2013-01-31 23:03:00,2.9,-2.4,30.42,NNW,335,0.0,0.0,78,0.00,,SKC,0.00,VWS V13.01,2013-02-01 05:03:00,
2013-01-31 23:04:00,2.8,-2.5,30.42,NNW,335,0.0,0.0,78,0.00,,SKC,0.00,VWS V13.01,2013-02-01 05:04:00,
2013-01-31 23:09:00,2.8,-2.2,30.42,NNW,335,0.0,0.0,79,0.00,,SKC,0.00,VWS V13.01,2013-02-01 05:09:00,
2013-01-31 23:14:00,2.7,-2.6,30.43,NNW,328,0.0,0.0,78,0.00,,SKC,0.00,VWS V13.01,2013-02-01 05:14:00,
2013-01-31 23:19:00,2.7,-2.6,30.44,NNW,328,0.0,0.0,78,0.00,,SKC,0.00,VWS V13.01,2013-02-01 05:19:00,
2013-01-31 23:24:00,2.6,-2.7,30.44,NW,326,0.0,0.0,78,0.00,,SKC,0.00,VWS V13.01,2013-02-01 05:24:00,
2013-01-31 23:29:00,2.6,-2.7,30.44,NW,322,0.0,0.0,78,0.00,,SKC,0.00,VWS V13.01,2013-02-01 05:29:00,
2013-01-31 23:34:00,2.6,-2.7,30.44,NW,322,0.0,0.0,78,0.00,,SKC,0.00,VWS V13.01,2013-02-01 05:34:00,
2013-01-31 23:39:00,2.5,-2.8,30.44,NW,322,0.0,0.0,78,0.00,,SKC,0.00,VWS V13.01,2013-02-01 05:39:00,
2013-01-31 23:44:00,2.5,-2.8,30.44,NW,322,0.0,0.0,78,0.00,,SKC,0.00,VWS V13.01,2013-02-01 05:44:00,
2013-01-31 23:49:00,2.4,-2.9,30.44,NW,322,0.0,0.0,78,0.00,,SKC,0.00,VWS V13.01,2013-02-01 05:49:00,
2013-01-31 23:54:00,2.4,-2.9,30.43,NW,322,0.0,0.0,78,0.00,,SKC,0.00,VWS V13.01,2013-02-01 05:54:00,